Consulta los datos en tiempo real de la estación meteorológica de Cercs - La Baells
| Hora UTC | 03:00 |
|---|---|
| Temperatura | 16.0 ºC |
| Humedad | 76.6 % |
| Presión | 1018.2 hPa |
| Pluja | 0.0 mm |
| Velocidad viento | 0.2 km/h |
| Dirección viento | NNW |
| Temperatura (ºC) | Humedad (%) | Presión (hPa) | Velocidad viento (km/h) | Precipitación (mm) | ||||||||||||
|---|---|---|---|---|---|---|---|---|---|---|---|---|---|---|---|---|
| Hora UTC | Aire | Humedad | Presión | Vel. | Dir. | Vel. Max | Dir. | Intent. máx 5 min. | ||||||||
| 00:05 | 17.9 | 66.9 | 1018.2 | 0.7 | N | 0.7 | N | 0.0 | ||||||||
| 00:10 | 18.0 | 66.2 | 1018.2 | 0.2 | NNW | 0.7 | N | 0.0 | ||||||||
| 00:15 | 18.0 | 66.1 | 1018.2 | 0.1 | NNW | 0.7 | N | 0.0 | ||||||||
| 00:20 | 17.9 | 66.2 | 1018.2 | 0.1 | N | 0.7 | N | 0.0 | ||||||||
| 00:25 | 17.9 | 66.3 | 1018.2 | 0.1 | N | 0.7 | N | 0.0 | ||||||||
| 00:30 | 17.9 | 66.4 | 1018.2 | 0.2 | NNW | 0.7 | N | 0.0 | ||||||||
| 00:35 | 17.9 | 66.4 | 1018.2 | 0.2 | NNW | 0.7 | N | 0.0 | ||||||||
| 00:40 | 17.6 | 67.5 | 1018.2 | 0.3 | N | 0.7 | N | 0.0 | ||||||||
| 00:45 | 17.6 | 67.8 | 1018.2 | 0.3 | N | 0.7 | N | 0.0 | ||||||||
| 00:50 | 17.4 | 68.6 | 1018.2 | 0.2 | NNW | 0.7 | N | 0.0 | ||||||||
| 00:55 | 17.4 | 68.7 | 1018.2 | 0.2 | NNW | 0.7 | N | 0.0 | ||||||||
| 01:00 | 17.3 | 69.6 | 1018.2 | 0.1 | NNW | 0.7 | N | 0.0 | ||||||||
| 01:05 | 17.2 | 69.8 | 1018.2 | 0.1 | NNW | 0.7 | N | 0.0 | ||||||||
| 01:10 | 16.6 | 72.0 | 1018.2 | 0.1 | ESE | 0.7 | N | 0.0 | ||||||||
| 01:15 | 16.5 | 72.5 | 1018.2 | 0.1 | ENE | 0.7 | N | 0.0 | ||||||||
| 01:20 | 16.5 | 74.5 | 1018.2 | 1.5 | W | 1.5 | W | 0.0 | ||||||||
| 01:25 | 16.4 | 75.0 | 1018.2 | 1.8 | NNW | 1.8 | NNW | 0.0 | ||||||||
| 01:30 | 16.5 | 74.9 | 1018.2 | 1.3 | NW | 1.8 | NNW | 0.0 | ||||||||
| 01:35 | 16.6 | 74.9 | 1018.2 | 1.2 | NW | 1.8 | NNW | 0.0 | ||||||||
| 01:40 | 16.4 | 75.3 | 1018.2 | 0.3 | NNW | 1.8 | NNW | 0.0 | ||||||||
| 01:45 | 16.3 | 75.4 | 1018.2 | 0.1 | NNW | 1.8 | NNW | 0.0 | ||||||||
| 01:50 | 16.3 | 75.6 | 1018.2 | 0.3 | NNW | 1.8 | NNW | 0.0 | ||||||||
| 01:55 | 16.3 | 75.6 | 1018.2 | 0.3 | NNW | 1.8 | NNW | 0.0 | ||||||||
| 01:55 | 16.3 | 75.6 | 1018.2 | 0.3 | NNW | 1.8 | NNW | 0.0 | ||||||||
| 01:55 | 16.3 | 75.6 | 1018.2 | 0.3 | NNW | 1.8 | NNW | 0.0 | ||||||||
| 02:15 | 16.5 | 74.1 | 1018.2 | 0.4 | NNW | 1.8 | NNW | 0.0 | ||||||||
| 02:20 | 16.3 | 75.1 | 1018.2 | 0.1 | SW | 1.8 | NNW | 0.0 | ||||||||
| 02:25 | 16.3 | 75.4 | 1018.2 | 0.0 | SSW | 1.8 | NNW | 0.0 | ||||||||
| 02:30 | 16.2 | 75.2 | 1018.2 | 0.2 | NW | 1.8 | NNW | 0.0 | ||||||||
| 02:35 | 16.1 | 75.2 | 1018.2 | 0.3 | NNW | 1.8 | NNW | 0.0 | ||||||||
| 02:40 | 16.3 | 74.0 | 1018.2 | 0.3 | NNW | 1.8 | NNW | 0.0 | ||||||||
| 02:45 | 16.4 | 73.7 | 1018.2 | 0.3 | NNW | 1.8 | NNW | 0.0 | ||||||||
| 02:50 | 16.0 | 76.1 | 1018.2 | 0.2 | NNW | 1.8 | NNW | 0.0 | ||||||||
| 02:55 | 16.0 | 76.6 | 1018.2 | 0.1 | NNW | 1.8 | NNW | 0.0 | ||||||||
| 03:00 | 16.0 | 76.6 | 1018.2 | 0.2 | NNW | 1.8 | NNW | 0.0 | ||||||||
| Máxima | 18.0 | 76.6 | 1018.2 | 1.8 | NNW | 1.8 | NNW | 0.0 | ||||||||
| Mínima | 16.0 | 66.1 | 1018.2 | |||||||||||||
| Total | 0.0 | |||||||||||||||